FENGYUN 1C DEB, 31609

Orbit data source: Space-Track

FENGYUN 1C DEB, 31609 is space debris in SSO originally from a launch on Mon, 10 May 1999 UTC launched from the Taiyaun Space Center, China (TSC). Fengyun 1C debris stems from the Chinese weather satellite Fengyun-1C, which was intentionally destroyed by a Chinese anti-satellite missile in 2007. This event dramatically increased the amount of space debris, with thousands of trackable fragments posing hazards to satellites and human spaceflight. The Fengyun 1C debris cloud has become a focal point in discussions about space sustainability and the need for international regulations to prevent the creation of new debris.

Loading next visibility...
Identifier
31609, 1999-025BZP
Orbit
SSO
Country
Flag of CNCN / PRC
Related business
Manufacturer
Unknown
Mission
Spacecraft
Bus & Motor
Unknown
Mass
Unknown
Launch date (UTC)
1999-05-10 (27 years ago)
Launch vehicle
Unknown
Launch site
Taiyaun Space Center, China (TSC)
Object type
Payload
Rocket body
Debris
Shape & HBR
Unknown shape, 0.1 m
Radar Cross Section
Small (<0.1 m²)

Expand to show TLE details & history
Last TLE update: 4 days ago

TLE from 4 days ago
0 FENGYUN 1C DEB
1 31609U 99025BZP 26067.57659675  .00004920  00000-0  23846-2 0  9995
2 31609  99.2047 104.0278 0095468  79.5996  73.1699 14.16506977672995
Epoch: 2026-03-08T13:50Z
TLE epoch observation values (Epoch: 2026-03-08T13:50:17.959Z)
Latitude
25.85154°
Longitude
-85.3495°
Altitude
820.962 km
Speed
7.455 km/s
True Right ascension
19h 14m 01s
True Declination
25° 43' 05"
Sunlit
Object was in daylight at epoch
Visualization orbit readout
Latitude
Unknown
Longitude
Unknown
Altitude
Unknown
Speed
Unknown
Apparent Right ascension
Unknown
Apparent Declination
Unknown
Sunlit
N/A
Visualization observer readout
Local Sidereal Time
02:16:44
Azimuth
Unknown
Elevation
Unknown
Doppler factor
Unknown
Orbital elements
Apogee altitude
903.234 km
Perigee altitude
765.521 km
Semi-major axis
7,212.514 km
Eccentricity
0.00955
Inclination
99.2047°
RAAN
104.0278°
Arg. of periapsis
79.5996°
True anomaly
74.2206°
Mean anomaly
73.1699°
Eccentric anomaly
73.69489°
Mean motion
3.54334 °/min
Orbital period
101.6 mins
BSTAR
0.0023846
Loading maneuver chart data...
Computing Atmospheric mass density...

Documentation

Showing up to 5 results
|